This is the latest recevied weather packets stored in our database for station/object EB1TK-13. If no packets are shown the sender has not sent any weather packets the latest 10 day(s).
| Time | Temp. | Humidity | Pressure | Rain* | Wind** | Luminosity | Snow |
|---|---|---|---|---|---|---|---|
| 1777802536 | 15° C | 90% | 1013 hPa | 0 mm | - | - | - |
| 1777801946 | 15.56° C | 87% | 1012.9 hPa | 0 mm | - | - | - |
| 1777801336 | 15.56° C | 85% | 1013 hPa | 0 mm | - | - | - |
| 1777800737 | 16.67° C | 85% | 1012.8 hPa | 0 mm | - | - | - |
| 1777800137 | 16.67° C | 88% | 1012.7 hPa | 0 mm | - | - | - |
| 1777799538 | 16.11° C | 90% | 1012.7 hPa | 0 mm | - | - | - |
| 1777798936 | 15.56° C | 90% | 1012.6 hPa | 0 mm | - | - | - |
| 1777798336 | 15.56° C | 90% | 1012.7 hPa | 0 mm | - | - | - |
| 1777797736 | 16.11° C | 90% | 1012.6 hPa | 0 mm | - | - | - |
| 1777797136 | 16.11° C | 91% | 1012.7 hPa | 0 mm | - | - | - |
| 1777796537 | 16.11° C | 94% | 1012.7 hPa | 0 mm | - | - | - |
| 1777795937 | 15.56° C | 95% | 1012.5 hPa | 0 mm | - | - | - |
| 1777795335 | 14.44° C | 96% | 1012.6 hPa | 0 mm | - | - | - |
| 1777794758 | 14.44° C | 96% | 1012.6 hPa | 0 mm | - | - | - |
| 1777794157 | 13.89° C | 96% | 1012.6 hPa | 0 mm | - | - | - |
| 1777793536 | 13.89° C | 97% | 1012.6 hPa | 0 mm | - | - | - |
| 1777792937 | 13.89° C | 97% | 1012.6 hPa | 0 mm | - | - | - |
| 1777792337 | 13.89° C | 97% | 1012.5 hPa | 0 mm | - | - | - |
| 1777791735 | 13.33° C | 97% | 1012.4 hPa | 0 mm | - | - | - |
| 1777791135 | 13.33° C | 97% | 1012.4 hPa | 0 mm | - | - | - |
| 1777790538 | 13.33° C | 97% | 1012.4 hPa | 0 mm | - | - | - |
| 1777789941 | 13.33° C | 97% | 1012.3 hPa | 0 mm | - | - | - |
| 1777789336 | 12.78° C | 97% | 1012.2 hPa | 0 mm | - | - | - |
| 1777788750 | 12.78° C | 97% | 1012.2 hPa | 0 mm | - | - | - |
| 1777788137 | 12.22° C | 97% | 1012.2 hPa | 0 mm | - | - | - |
* Rain latest hour (hover to see other rain measurements)
** Current wind speed in m/s (hover to see current wind gust speed)